Regional Weather Roundup
Issued by NWS Binghamton, NY

Home | Current Version | Previous Version | Text Only | Print | Product List | Glossary On
Versions: 1 2 3 4 5 6 7 8 9 10 11 12 13 14 15 16 17 18 19 20 21 22 23 24 25 26 27 28 29 30 31 32 33 34 35 36 37 38 39 40 41 42 43 44 45 46 47 48 49 50
000
ASUS41 KBGM 270110
RWRBGM
RWRBGM
BINGHAMTON REGIONAL WEATHER ROUNDUP
NATIONAL WEATHER SERVICE BINGHAMTON NY
800 PM EST MON JAN 26 2015

Note: "fair" indicates few or no clouds below 12,000 feet with no
significant weather and/or obstructions to visibility.

* = Station(s) that does not report precipitation, such as rain,
snow, etc, also no thunder or fog.

!NYZ009-015>018-022>025-036-037-044>046-055>057-062-270200
...CENTRAL NEW YORK...

CITY           SKY/WX    TMP DP  RH WIND       PRES   REMARKS
BINGHAMTON     LGT SNOW  16  13  88 NE7       29.80F FOG     WCI   6
CORTLAND       LGT SNOW  19  18  93 NE3       29.87F
DANSVILLE      LGT SNOW  15  11  83 N3        29.93S FOG
ELMIRA         LGT SNOW  18  15  88 NE7       29.87S FOG     WCI   9
ITHACA         LGT SNOW  18  15  88 CALM      29.88S FOG
HAMILTON       CLOUDY    18  10  73 CALM      29.90
MONTICELLO     CLOUDY    19  16  86 E16G23    29.82F WCI   5
NORWICH        LGT SNOW  18  12  79 N6        29.89F WCI   9
ONEONTA        PTCLDY    14   9  79 E7        29.82F WCI   4
PENN YAN       LGT SNOW  15  12  88 VRB3      29.91R FOG
ROME           CLOUDY    17   6  62 SE5       29.99S WCI  10
SIDNEY         LGT SNOW  19  18  93 E3        29.86F
SYRACUSE       FLURRIES  17   6  62 E13       29.96S WCI   4
$$

!PAZ038>040-043-044-047-048-072-270200
...NORTHEAST PENNSYLVANIA...

CITY           SKY/WX    TMP DP  RH WIND       PRES   REMARKS
HAZLETON       LGT SNOW  23  19  86 E8        29.76F WCI  14
SCRANTON       CLOUDY    22  15  75 NE8G16    29.80F WCI  12
TOWANDA*         N/A     21  19  93 N5        29.86F WCI  15
$$
&&
KEY
WCI = WIND CHILL INDEX
VSB = VISIBILITY
HX  = HEAT INDEX
$$



USA.gov is the U.S. government's official web portal to all federal, state and local government web resources and services.